[[{"header":{"parameterUnit":"m.s-1","parameterCategory":1,"la1":30.2991,"la2":30.254,"lo1":-89.0895,"lo2":-89.0444,"dy":0.0017,"dx":0.0017,"nx":28,"ny":28,"refTime":"2025-04-23T09:00:00:Z","depth":0,"parameterNumber":2,"parameterNumberName":"U-component_of_WINDS"},"data":[0,0,0,0,0,0,0,0,0,0,0,0,0,0,0,0,0,0,0,0,0,0,0,0,0,0,0,0,0,0,0,0,0,0,0,0,0,0,0,0,0,0,0,0,0,0,0,0,0,0,0,0,0,0,0,0,0,0,-0.4977,-0.4977,0,-0.4979,-0.4979,-0.4979,-0.4962,-0.4961,-0.4961,-0.496,-0.4964,-0.4965,-0.4965,0,0,0,0,0,0,0,0,0,0,0,0,0,-0.4961,-0.4962,-0.4977,-0.4977,-0.4977,-0.4979,-0.4979,-0.4979,-0.4962,-0.4961,-0.4961,-0.496,-0.4964,-0.4965,-0.4965,0,0,0,0,0,0,0,0,0,0,0,0,0,-0.4966,-0.4962,-0.4977,-0.4969,-0.4968,-0.4979,-0.4979,-0.4979,-0.4962,-0.4961,-0.496,-0.496,-0.4964,-0.4965,-0.4965,-0.4985,0,0,-0.4968,-0.4968,0,0,0,0,0,0,0,0,-0.4966,-0.4967,-0.497,-0.4969,-0.4969,-0.4969,-0.4975,-0.4981,-0.4962,-0.4964,-0.496,-0.4959,-0.4967,-0.4967,-0.4969,-0.4985,-0.4985,-0.4968,-0.4968,-0.4969,-0.4969,0,0,0,0,0,0,0,-0.4966,-0.4967,-0.4978,-0.497,-0.4969,-0.4966,-0.4966,-0.4976,-0.497,-0.4964,-0.4963,-0.4963,-0.4966,-0.4968,-0.4969,-0.4985,-0.4968,-0.4969,-0.4969,-0.4969,-0.5018,-0.5019,0,0,0,0,0,0,-0.4966,-0.4967,-0.4978,-0.4978,-0.4965,-0.4967,-0.4966,-0.497,-0.4969,-0.4969,-0.4964,-0.4962,-0.4967,-0.4968,-0.4969,-0.4993,-0.4969,-0.4969,-0.497,-0.5017,-0.5018,-0.5019,0,0,0,0,0,0,-0.4966,-0.4967,-0.4978,-0.4972,-0.4973,-0.4968,-0.4972,-0.497,-0.4972,-0.4969,-0.4968,-0.4967,-0.4967,-0.4968,-0.4981,-0.4993,-0.497,-0.4971,-0.5016,-0.5018,-0.5019,-0.504,0,0,0,0,0,0,-0.4966,-0.4967,-0.4974,-0.4972,-0.4973,-0.4989,-0.4972,-0.4971,-0.4974,-0.4972,-0.4972,-0.4971,-0.4966,-0.498,-0.4982,-0.4993,-0.4971,-0.5015,-0.5017,-0.5018,-0.5038,-0.5041,-0.5044,0,0,0,0,0,-0.4965,-0.498,-0.4975,-0.4976,-0.4982,-0.499,-0.4991,-0.4984,-0.4975,-0.4982,-0.498,-0.4971,-0.4991,-0.4981,-0.4983,-0.4995,-0.5015,-0.5017,-0.5018,-0.5036,-0.5041,-0.5044,0,0,0,0,0,0,-0.4984,-0.498,-0.4974,-0.4988,-0.499,-0.4987,-0.4996,-0.4988,-0.4993,-0.4991,-0.4983,-0.4983,-0.4998,-0.4998,-0.4987,-0.5015,-0.5001,-0.5004,-0.5014,-0.5018,-0.5021,-0.5022,-0.4972,0,0,0,0,0,-0.499,-0.4997,-0.4992,-0.5006,-0.5007,-0.5001,-0.5005,-0.4999,-0.5,-0.5001,-0.5,-0.5002,-0.5009,-0.5013,-0.5019,-0.5037,-0.5038,-0.5047,-0.505,-0.5052,-0.5055,-0.5066,-0.507,-0.5025,-0.5025,-0.5025,0,0,-0.5003,-0.5001,-0.5006,-0.501,-0.501,-0.5018,-0.5002,-0.501,-0.5016,-0.5003,-0.5015,-0.5014,-0.5016,-0.5032,-0.5039,-0.5033,-0.5067,-0.5055,-0.5057,-0.5058,-0.5068,-0.5072,-0.5076,-0.5026,-0.5026,-0.5026,0,0,-0.503,-0.5028,-0.504,-0.504,-0.5041,-0.5037,-0.504,-0.5038,-0.5037,-0.5049,-0.5039,-0.5047,-0.5058,-0.506,-0.5062,-0.509,-0.5083,-0.5092,-0.511,-0.512,-0.5124,-0.5127,-0.5138,-0.5142,-0.5095,-0.5095,-0.5095,0,-0.5045,-0.5056,-0.5047,-0.5056,-0.5059,-0.5046,-0.5058,-0.5059,-0.5062,-0.5065,-0.5057,-0.5071,-0.5071,-0.5088,-0.5095,-0.5097,-0.5101,-0.5093,-0.5124,-0.5127,-0.513,-0.514,-0.5144,-0.5096,-0.5096,-0.5096,-0.5095,0,-0.5076,-0.5083,-0.5092,-0.5095,-0.5098,-0.5109,-0.5103,-0.5108,-0.5102,-0.5099,-0.5112,-0.5112,-0.5118,-0.5121,-0.5116,-0.5138,-0.5134,-0.5125,-0.5112,-0.5135,-0.5145,-0.5149,-0.5098,-0.5097,-0.5097,-0.5096,0,0,-0.5116,-0.5113,-0.5117,-0.5118,-0.5117,-0.5123,-0.5134,-0.5139,-0.5144,-0.5146,-0.5155,-0.5165,-0.5157,-0.516,-0.5155,-0.5164,-0.5187,-0.5154,-0.5154,-0.5161,-0.5213,-0.522,-0.5225,-0.5182,-0.5183,-0.5183,-0.5213,0,-0.5143,-0.516,-0.5152,-0.5171,-0.5178,-0.5166,-0.5175,-0.5176,-0.5174,-0.5181,-0.5178,-0.5186,-0.5174,-0.5176,-0.5184,-0.5183,-0.5198,-0.518,-0.5192,-0.5192,-0.5193,-0.523,-0.5238,-0.5266,-0.5216,-0.5217,-0.5218,0,-0.5177,-0.518,-0.5199,-0.5198,-0.52,-0.5209,-0.5213,-0.5219,-0.5221,-0.5218,-0.5222,-0.5214,-0.5226,-0.5211,-0.5227,-0.5216,-0.522,-0.522,-0.5221,-0.5223,-0.5207,-0.5234,-0.5274,-0.5279,-0.5223,-0.5223,-0.5222,0,-0.5206,-0.5215,-0.5227,-0.5229,-0.5227,-0.5233,-0.5233,-0.5233,-0.5237,-0.5241,-0.5244,-0.5249,-0.5253,-0.5258,-0.5253,-0.5243,-0.527,-0.5255,-0.527,-0.527,-0.5277,-0.5277,-0.532,-0.5278,-0.5278,-0.5278,-0.5277,0,-0.5238,-0.525,-0.524,-0.5248,-0.5262,-0.5253,-0.5268,-0.5266,-0.5267,-0.5275,-0.5264,-0.5272,-0.5265,-0.5272,-0.5268,-0.5283,-0.5284,-0.5284,-0.5283,-0.5285,-0.5286,-0.5289,-0.5287,-0.5279,-0.5278,-0.5278,-0.5278,0,-0.5273,-0.5267,-0.528,-0.5277,-0.5276,-0.5287,-0.5285,-0.5293,-0.5289,-0.53,-0.5302,-0.5297,-0.5306,-0.5301,-0.5309,-0.5307,-0.5326,-0.5322,-0.5326,-0.5325,-0.534,-0.5339,-0.5388,-0.5394,-0.5347,-0.5347,-0.5348,0,-0.5294,-0.5304,-0.5301,-0.5306,-0.5306,-0.5313,-0.5317,-0.5308,-0.5313,-0.5315,-0.5323,-0.533,-0.5336,-0.535,-0.5348,-0.5355,-0.5352,-0.5368,-0.5353,-0.5356,-0.5354,-0.5354,-0.5355,-0.5372,-0.5373,-0.5373,-0.5373,0,-0.5333,-0.533,-0.5335,-0.5339,-0.5344,-0.5347,-0.5349,-0.5354,-0.5346,-0.5351,-0.5359,-0.5364,-0.5372,-0.538,-0.5386,-0.5387,-0.538,-0.5378,-0.5382,-0.5385,-0.5388,-0.5388,-0.5335,-0.5377,-0.5377,-0.5377,-0.5376,-0.5376,-0.5363,-0.5371,-0.5371,-0.5377,-0.5378,-0.5381,-0.5388,-0.5385,-0.5391,-0.5398,-0.5392,-0.5402,-0.5404,-0.5411,-0.5413,-0.5421,-0.5415,-0.542,-0.5422,-0.5424,-0.5426,-0.5385,-0.5422,-0.5422,-0.5422,-0.5422,-0.5422,0,-0.5403,-0.5402,-0.5408,-0.5411,-0.5417,-0.5407,-0.541,-0.5415,-0.5424,-0.5425,-0.5431,-0.5441,-0.5448,-0.5447,-0.5454,-0.5461,-0.5458,-0.5464,-0.5464,-0.5464,-0.5431,-0.5428,-0.5466,-0.5466,-0.5466,-0.5466,-0.5466,-0.5466,-0.5425,-0.5438,-0.5434,-0.5448,-0.5447,-0.5456,-0.5458,-0.5461,-0.5462,-0.5473,-0.5479,-0.5478,-0.5478,-0.5485,-0.5493,-0.5492,-0.5496,-0.5503,-0.5501,-0.5471,-0.5466,-0.5462,-0.5459,-0.5503,-0.5503,-0.5534,-0.5534,-0.5534]},{"header":{"parameterUnit":"m.s-1","parameterCategory":1,"la1":30.2991,"la2":30.254,"lo1":-89.0895,"lo2":-89.0444,"dy":0.0017,"dx":0.0017,"nx":28,"ny":28,"refTime":"2025-04-23T09:00:00:Z","depth":0,"parameterNumber":3,"parameterNumberName":"V-component_of_WINDS"},"data":[0,0,0,0,0,0,0,0,0,0,0,0,0,0,0,0,0,0,0,0,0,0,0,0,0,0,0,0,0,0,0,0,0,0,0,0,0,0,0,0,0,0,0,0,0,0,0,0,0,0,0,0,0,0,0,0,0,0,2.9072,2.9072,0,2.908,2.908,2.908,2.9049,2.9048,2.9047,2.9046,2.9054,2.9055,2.9056,0,0,0,0,0,0,0,0,0,0,0,0,0,2.9027,2.9028,2.9072,2.9072,2.9072,2.908,2.908,2.908,2.9049,2.9048,2.9047,2.9046,2.9054,2.9055,2.9056,0,0,0,0,0,0,0,0,0,0,0,0,0,2.9042,2.9028,2.9071,2.9057,2.9056,2.908,2.908,2.908,2.905,2.9048,2.9047,2.9045,2.9053,2.9055,2.9057,2.9094,0,0,2.9061,2.9062,0,0,0,0,0,0,0,0,2.9041,2.9043,2.9059,2.9058,2.9057,2.9062,2.9067,2.9085,2.905,2.9052,2.9046,2.9045,2.9058,2.9059,2.9064,2.9095,2.9095,2.9062,2.9063,2.9063,2.9064,0,0,0,0,0,0,0,2.904,2.9043,2.9075,2.906,2.9058,2.905,2.905,2.907,2.9063,2.9052,2.905,2.9051,2.9057,2.9062,2.9064,2.9095,2.9062,2.9063,2.9064,2.9065,2.9154,2.9156,0,0,0,0,0,0,2.9041,2.9042,2.9075,2.9075,2.9045,2.9052,2.9052,2.9062,2.9062,2.9061,2.9052,2.905,2.906,2.9062,2.9064,2.9106,2.9063,2.9065,2.9066,2.9153,2.9155,2.9156,0,0,0,0,0,0,2.904,2.9044,2.9074,2.9058,2.9061,2.9054,2.9065,2.9063,2.9068,2.9063,2.9061,2.9059,2.9059,2.9061,2.9086,2.9105,2.9065,2.9067,2.9151,2.9154,2.9155,2.9191,0,0,0,0,0,0,2.9039,2.9044,2.9059,2.9059,2.9062,2.9097,2.9066,2.9064,2.9071,2.9067,2.9069,2.9067,2.9058,2.9084,2.9088,2.9107,2.9068,2.9149,2.9152,2.9155,2.9188,2.9194,2.9199,0,0,0,0,0,2.9037,2.9069,2.906,2.9064,2.9081,2.9098,2.91,2.9089,2.9073,2.9087,2.9083,2.9067,2.9103,2.9087,2.9091,2.9111,2.9148,2.9151,2.9155,2.9185,2.9193,2.9199,0,0,0,0,0,0,2.9072,2.9069,2.9058,2.9091,2.9095,2.9093,2.9111,2.9098,2.9107,2.9103,2.9089,2.909,2.9117,2.9116,2.9098,2.9146,2.9123,2.9127,2.9145,2.9152,2.9157,2.9156,2.907,0,0,0,0,0,2.9083,2.9098,2.9095,2.9123,2.9126,2.9118,2.9126,2.9117,2.9121,2.9122,2.912,2.9124,2.9136,2.9144,2.9155,2.9188,2.9187,2.9204,2.921,2.9214,2.9217,2.9233,2.9239,2.9167,2.9167,2.9167,0,0,2.9106,2.9107,2.9117,2.913,2.9133,2.9147,2.912,2.9138,2.9148,2.9125,2.9147,2.9146,2.915,2.9178,2.9191,2.9179,2.9237,2.9218,2.9222,2.9223,2.9237,2.9243,2.925,2.9169,2.9169,2.9168,0,0,2.9156,2.9159,2.9182,2.9185,2.9188,2.9182,2.9188,2.9188,2.9186,2.9209,2.9191,2.9203,2.9225,2.9227,2.9231,2.928,2.9265,2.9285,2.9313,2.9328,2.9334,2.9339,2.9354,2.936,2.9288,2.9288,2.9288,0,2.9185,2.9207,2.9195,2.9214,2.9219,2.9199,2.9221,2.9224,2.9231,2.9235,2.9222,2.9247,2.9248,2.9275,2.9287,2.9292,2.9297,2.9283,2.9334,2.9339,2.9343,2.9358,2.9364,2.929,2.929,2.929,2.929,0,2.924,2.9256,2.9274,2.9281,2.9289,2.9309,2.93,2.9309,2.9299,2.9294,2.9317,2.9317,2.9327,2.9333,2.9324,2.9359,2.9351,2.9337,2.9312,2.9352,2.9366,2.9371,2.9293,2.9293,2.9292,2.9291,0,0,2.9312,2.9311,2.9317,2.9319,2.9321,2.9333,2.9352,2.9361,2.9368,2.9373,2.9387,2.9406,2.9391,2.9396,2.9387,2.9401,2.9437,2.9384,2.9384,2.9392,2.9472,2.9482,2.9489,2.9428,2.9429,2.943,2.9471,0,2.9359,2.939,2.938,2.9412,2.9425,2.9405,2.9421,2.9424,2.942,2.943,2.9426,2.9438,2.9419,2.9422,2.9434,2.943,2.9452,2.9427,2.9439,2.944,2.9437,2.9496,2.9506,2.9546,2.9477,2.9478,2.9478,0,2.9418,2.9424,2.9457,2.9455,2.946,2.9475,2.9481,2.9492,2.9494,2.949,2.9494,2.9482,2.9499,2.9477,2.9499,2.9482,2.9487,2.9485,2.9486,2.9485,2.946,2.9494,2.9558,2.9563,2.9487,2.9486,2.9486,0,2.9463,2.9481,2.9502,2.9505,2.9503,2.9513,2.9513,2.9514,2.952,2.9525,2.9528,2.9537,2.954,2.9547,2.9536,2.9521,2.956,2.9537,2.9555,2.9556,2.9563,2.9562,2.9626,2.957,2.957,2.9569,2.9569,0,2.9515,2.9536,2.9522,2.9535,2.9557,2.9544,2.9566,2.9564,2.9564,2.9575,2.956,2.9571,2.9558,2.9567,2.956,2.9578,2.9581,2.9577,2.9574,2.9577,2.9577,2.9578,2.9575,2.9571,2.9571,2.957,2.957,0,2.9569,2.9561,2.9582,2.9579,2.9579,2.9595,2.9591,2.9603,2.9598,2.9612,2.9615,2.9607,2.9617,2.9608,2.9618,2.9613,2.9637,2.9631,2.9636,2.9633,2.9652,2.9649,2.9717,2.9724,2.9665,2.9666,2.9666,0,2.9602,2.9617,2.9614,2.9621,2.9621,2.9632,2.9637,2.9626,2.9632,2.9634,2.9645,2.9653,2.966,2.9677,2.9671,2.9679,2.9672,2.9695,2.9673,2.9674,2.9669,2.9668,2.9668,2.9699,2.97,2.97,2.9701,0,2.966,2.9655,2.9663,2.9669,2.9676,2.968,2.9684,2.969,2.9677,2.9685,2.9695,2.97,2.9709,2.9718,2.9723,2.9722,2.9709,2.9708,2.9712,2.9714,2.9715,2.9712,2.9645,2.9706,2.9706,2.9705,2.9705,2.9705,2.9702,2.9714,2.9713,2.9722,2.9723,2.9726,2.9736,2.9732,2.974,2.9746,2.9739,2.9751,2.9751,2.9757,2.9758,2.9766,2.9756,2.9763,2.9764,2.9766,2.9767,2.9716,2.9767,2.9767,2.9767,2.9767,2.9767,0,2.9757,2.9756,2.9764,2.9769,2.9775,2.9763,2.9766,2.9772,2.9782,2.9783,2.9789,2.98,2.9808,2.9803,2.9809,2.9817,2.9811,2.9819,2.9817,2.9816,2.9777,2.9771,2.9823,2.9823,2.9823,2.9823,2.9823,2.9823,2.9787,2.9804,2.9799,2.9817,2.9815,2.9826,2.9828,2.983,2.9831,2.9843,2.985,2.9846,2.9845,2.9851,2.9857,2.9855,2.9857,2.9867,2.9863,2.9825,2.982,2.9814,2.9809,2.9868,2.9868,2.9902,2.9902,2.9902]}]]